Flag for United Arab Emirates Weather past 2 weeks in Abu Dhabi, Abu Dhabi, United Arab Emirates

Now
61 °F

Clear.


Feels Like: 61 °F
Forecast: 63 / 74 °F
Wind: 2 mph from North

Location: Abu Dhabi Bateen Airport

Current Time: Dec 22, 2014 at 3:33:26 AM

Latest Report: Dec 22, 2014 at 3:00 AM


Visibility: 4 mi

Pressure: 29.98 "Hg

Humidity: 83%

Dew point: 55 °F

Location of Abu DhabiLocation

Historic Weather in Abu Dhabi — Graph

°F

Abu Dhabi temperature yesterday

Maximum temperature yesterday: 75 °F (at 3:00 PM)
Minimum temperature yesterday: 61 °F (at 6:00 AM)
Average temperature yesterday: 68 °F

Past Weeks' High & Low Weather Summary

 TemperatureHumidityPressure
High84 °F (Dec 8, 3:00 PM)94% (Dec 12, 6:00 AM)30.21 "Hg (Dec 12, 6:00 AM)
Low61 °F (Dec 21, 6:00 AM)20% (Dec 14, 2:00 PM)29.95 "Hg (Dec 21, 3:00 PM)
Average72 °F63%30.08 "Hg
* Reported Dec 7 2:00 AM — Dec 22 2:00 AM, Abu Dhabi, Weather by CustomWeather, © 2014

Note: Actual official high and low records may vary slightly from our data, if they occured in-between our weather recording intervals... More about our weather records

Advertising

Abu Dhabi weather history for previous 24 hours

 ConditionsComfort  
Time TempWeatherWind HumidityBarometerVisibility
2:00 AM
Dec 22
63 °FClear.2 mph77%29.98 "Hg5 mi
1:00 AM64 °FClear.1 mph78%29.98 "Hg10 mi
12:00 AM64 °FClear.2 mph73%29.98 "Hg10 mi
11:00 PM
Dec 21
64 °FClear.No wind73%30.01 "Hg10 mi
10:00 PM66 °FClear.2 mph68%30.01 "Hg10 mi
9:00 PM68 °FClear.2 mph64%30.01 "Hg10 mi
8:00 PM70 °FPassing clouds.5 mph57%29.98 "HgN/A
7:00 PM70 °FPassing clouds.7 mph57%29.98 "HgN/A
6:00 PM72 °FPassing clouds.8 mph50%29.95 "HgN/A
5:00 PM73 °FPassing clouds.5 mph47%29.95 "HgN/A
4:00 PM73 °FPassing clouds.6 mph47%29.95 "HgN/A
3:00 PM75 °FSunny.6 mph44%29.95 "Hg10 mi
2:00 PM73 °FPassing clouds.7 mph47%29.98 "HgN/A
1:00 PM73 °FPassing clouds.5 mph50%30.01 "HgN/A
12:00 PM73 °FPassing clouds.6 mph50%30.04 "HgN/A
11:00 AM70 °FPassing clouds.6 mph64%30.07 "HgN/A
10:00 AM66 °FPassing clouds.6 mph73%30.07 "Hg5 mi
9:00 AM63 °FClear.5 mph83%30.07 "Hg4 mi
8:00 AM61 °FClear.6 mph88%30.07 "Hg4 mi
7:00 AM61 °FClear.5 mph88%30.04 "Hg4 mi
6:00 AM61 °FClear.6 mph94%30.04 "Hg4 mi
5:00 AM63 °FClear.6 mph88%30.04 "Hg4 mi
3:00 AM64 °FClear.3 mph88%30.04 "Hg4 mi
Weather by CustomWeather, © 2014

See weather overviewHow to use our weather pages